Regional Weather Roundup
Issued by NWS Goodland, KS

Home | Current Version | Previous Version | Text Only | Print | Product List | Glossary Off
Versions: 1 2 3 4 5 6 7 8 9 10 11 12 13 14 15 16 17 18 19 20 21 22 23 24 25 26 27 28 29 30 31 32 33 34 35 36 37 38 39 40 41 42 43 44 45 46 47 48 49 50

000
ASUS43 KGLD 250208
RWRGLD

GOODLAND FORECAST AREA HOURLY WEATHER ROUNDUP
NATIONAL WEATHER SERVICE GOODLAND KS
700 PM MST SAT JAN 24 2015

...OFFICIAL OBSERVATIONS...

CITY           SKY/WX    TMP DP  RH WIND       PRES   REMARKS
GOODLAND KS    CLOUDY    47  29  49 NW20G29   29.96R
HILL CITY KS   CLOUDY    46  36  68 W12       29.86R
IMPERIAL NEB   MOCLDY    47  29  49 NW31G41   29.92R
MCCOOK NEB     CLOUDY    46  32  58 NW13      29.87R
AKRON CO       MOCLDY    40  30  67 NW21      30.01R
BURLINGTON CO  CLOUDY    44  27  51 NW22      29.99R
LIMON CO       CLOUDY    44  24  45 NW21      30.04R
$$

...UNOFFICIAL OBSERVATIONS...

CITY           SKY/WX    TMP DP  RH WIND       PRES   REMARKS
COLBY KS       MOCLDY    46  36  66 W22G28    29.93R
GOVE KS          N/A     44  32  63 MISG        N/A
NORTON KS      CLOUDY    48  34  57 W16G22    29.84R
SHARON SPRINGS   N/A     40  29  64 NW6         N/A
KIT CARSON CO    N/A     38  24  57 MISG        N/A
YUMA CO          N/A     41  32  69 N15         N/A
$$



USA.gov is the U.S. government's official web portal to all federal, state and local government web resources and services.